Location: Brusselsch Zeekanaal
(50.8667°N, 4.3667°E)
Time: 23:27:30
(UTC+00:00)

COSMO-SKYMED 1 - Pass Details

Date: 08 November 2025
Orbit: 579 x 581 km, 97.9° (Epoch: 04 December)

Event Time Altitude Azimuth Distance (km) Brightness Sun altitude
Rises 04:51:21 0° 161° (SSE) 2,796 6.2 -18.3°
Reaches altitude 10° 04:53:29 10° 161° (SSE) 1,900 5.4 -18.0°
Maximum altitude 04:57:37 81° 74° (ENE) 597 2.5 -17.3°
Drops below altitude 10° 05:01:46 10° 348° (NNW) 1,914 4.9 -16.7°
Sets 05:03:56 0° 347° (NNW) 2,818 5.7 -16.3°
